weather.gov     
National Weather Service

Regional Weather Roundup
NWS Homepage
This page is being discontinued on March 12, 2014.
The same data is available at this site. Please update your bookmarks.
Thank you, and we apologize for the inconvenience.
Please send an email to SR-SRH.Webmaster@noaa.gov with any concerns.


Current Version
Previous Version:    01  02  03  04  05  06  07  08  09  10  11  12  13  14  15  16  17  18  19  20  21  22  23  24  25  26  27  28  29  30  
   31  32  33  34  35  36  37  38  39  40  41  42  43  44  45  46  47  48  49  50  51  52  53  54  55  56  57  58  
[Printable]
298
ASUS41 KBTV 192130
RWRBTV
VERMONT REGIONAL WEATHER ROUNDUP
NATIONAL WEATHER SERVICE BURLINGTON VT
500 PM EDT FRI SEP 19 2014

NOTE: "FAIR" INDICATES FEW OR NO CLOUDS BELOW 12,000 FEET WITH NO
SIGNIFICANT WEATHER AND/OR OBSTRUCTIONS TO VISIBILITY.

* THESE REPORTS ARE NOT UNDER NWS QUALITY CONTROL AND/OR DO NOT
  REPORT WEATHER SUCH AS PRECIPITATION AND FOG.

VTZ001>019-192200-
_____VERMONT_____


CITY           SKY/WX    TMP DP  RH WIND       PRES   REMARKS
BURLINGTON     PTCLDY    57  31  37 CALM      30.31F
MONTPELIER     CLEAR     55  21  26 S10       30.35F
MORRISVILLE    CLEAR     56  27  32 S5        30.33F
ST. JOHNSBURY*   N/A     55  26  32 MISG      30.31F
MIDDLEBURY*    FAIR      58  31  35 S6        30.31F
RUTLAND*       CLEAR     57  28  33 SE10      30.31F
SPRINGFIELD    CLEAR     57  32  38 S5        30.35F
HIGHGATE*      FAIR      55  32  42 CALM      30.31F
NEWPORT*       FAIR      53  32  45 S3        30.31F
BENNINGTON     CLEAR     60  31  33 SE9       30.32F
SUTTON*          N/A     52 N/A N/A MISG        N/A
MT. MANSFIELD*   N/A     41 N/A N/A SE9         N/A

_____LAKE CHAMPLAIN_____


CITY           SKY/WX    TMP DP  RH WIND       PRES   REMARKS
BURTON ISLAND*   N/A     55  34  44 S3          N/A
COLCHESTER RF*   N/A     54  36  50 S9          N/A
DIAMOND ISL*     N/A     55  34  44 S10         N/A

$$

NYZ007-026>031-035-052-083-192200-
_____NORTHERN NEW YORK_____


CITY           SKY/WX    TMP DP  RH WIND       PRES   REMARKS
PLATTSBURGH    CLEAR     54  34  46 S10       30.30F
SARANAC LAKE   CLEAR     56  28  34 SW9       30.25F
MASSENA        CLEAR     58  33  39 NE3       30.28F
OGDENSBURG*    CLEAR     63  34  34 CALM      30.26F
POTSDAM*       CLEAR     59  37  44 CALM      30.26F
WATERTOWN      CLEAR     60  36  40 W3        30.27F
FT DRUM        CLEAR     60  35  39 W5        30.25F
ALBANY         PTCLDY    61  38  42 S8        30.33F
GLENS FALLS    CLEAR     58  35  42 VRB6      30.33F

$$
NHZ002-005-011-192200-
_____NEW HAMPSHIRE_____


CITY           SKY/WX    TMP DP  RH WIND       PRES   REMARKS
LEBANON        CLEAR     58  27  30 VRB3      30.34F
KEENE          CLEAR     57  28  33 S6        30.36F
MT WASHINGTON  PTCLDY    30  19  64 SW14        N/A  WCI  20
PLYMOUTH       FAIR      56  32  40 SE6       30.35F
WHITEFIELD     CLEAR     56  28  34 CALM      30.32F

$$

_____REGIONAL QUEBEC LOCATIONS_____


CITY           SKY/WX    TMP DP  RH WIND       PRES   REMARKS
MONTREAL       MOCLDY    55  27  33 SE8G17    30.31F
QUEBEC CITY    MOCLDY    52  23  32 W3        30.31F
SHERBROOKE     CLEAR     52  21  30 S5        30.31F

_____REGIONAL ONTARIO LOCATIONS_____


CITY           SKY/WX    TMP DP  RH WIND       PRES   REMARKS
OTTAWA         MOCLDY    55  32  41 SE7       30.28F

______KEY______
VSB  - VISIBILITY IN MILES
WCI  - WIND CHILL INDEX
HX   - HEAT INDEX
$$
NNNN




U.S. Dept. of Commerce
NOAA National Weather Service
1325 East West Highway
Silver Spring, MD 20910
E-mail: w-nws.webmaster@noaa.gov
Page last modified: May 16, 2007
NATIONAL WEATHER SERVICE: for Safety, for Work, for Fun - FOR LIFE